Location: Sevilla
(37.3933°N, 5.9839°W)
Time: 04:46:49
(UTC+02:00)

Transit 2A - Pass Details

Date: 27 June 2024
Orbit: 591 x 960 km, 66.7° (Epoch: 15 July)

Event Time Altitude Azimuth Distance (km) Brightness Sun altitude
Rises 01:23:40 0° 333° (NNW) 3,574 10.7 -27.5°
Reaches altitude 10° 01:26:10 10° 334° (NNW) 2,657 9.7 -27.6°
Maximum altitude 01:32:28 80° 62° (ENE) 976 6.4 -28.0°
Enters shadow 01:33:02 73° 117° (ESE) 1,000 6.3 -28.0°
Drops below altitude 10° 01:38:48 10° 150° (SSE) 2,669 - -28.2°
Sets 01:41:19 0° 151° (SSE) 3,591 - -28.3°
